Salamanca/Mataca, Spain

10:53 AM CET on February 24, 2017 (GMT +0100)
Matacan

Weather History for LESA - December, 2013

Change the Weather History Date:

Wednesday, December 4, 2013

  Actual Average Record
Temperature  
Mean Temperature 38 °F -  
Max Temperature 55 °F - - ()
Min Temperature 21 °F - - ()
Degree Days  
Heating Degree Days 27    
Moisture  
Dew Point 27 °F    
Average Humidity 77    
Maximum Humidity 100    
Minimum Humidity 32    
Precipitation  
Precipitation 0.00 in 0.05 in - ()
Sea Level Pressure  
Sea Level Pressure 30.36 in    
Wind  
Wind Speed 1 mph ()    
Max Wind Speed 9 mph    
Max Gust Speed -    
Visibility 6.1 miles    
Events      
T = Trace of Precipitation, MM = Missing Value Source: Averaged Metar Reports

Daily Weather History Graph

Daily Weather History Graph

Search for Another Location

Airport or City:

Trip Planner

Search our weather history database for the weather conditions in past years. The results will help you decide how hot, cold, wet, or windy it might be!

Date:

Astronomy

Dec. 04, 2013 Rise Set
Actual Time 8:30 AM CET 5:53 PM CET
Civil Twilight 7:59 AM CET 6:24 PM CET
Nautical Twilight 7:25 AM CET 6:58 PM CET
Astronomical Twilight 6:52 AM CET 7:32 PM CET
Moon 9:45 AM CET (12/4) 7:48 PM CET (12/4)
Length of Visible Light 10h 24m
Length of Day
9h 23m
Waxing Crescent, 3% of the Moon is Illuminated
Dec 4
Waxing Crescent
Dec 9
First Quarter
Dec 17
Full
Dec 25
Last Quarter
Jan 1
New

Hourly Weather History & Observations

Time (CET) Temp. Windchill Dew Point Humidity Pressure Visibility Wind Dir Wind Speed Gust Speed Precip Events Conditions
12:00 AM 26 °F - 23 °F 82%  in - Calm Calm - -  
12:00 AM 24.8 °F - 23.0 °F 93% 30.33 in - Calm Calm - N/A   Clear
12:30 AM 24.8 °F - 23.0 °F 93% 30.33 in - Calm Calm - N/A   Clear
1:00 AM 24 °F - 22 °F 90%  in 9 mi Calm Calm - -  
1:00 AM 24.8 °F - 23.0 °F 93% 30.33 in - Calm Calm - N/A   Clear
1:30 AM 24.8 °F - 23.0 °F 93% 30.33 in - Calm Calm - N/A   Clear
2:00 AM 24 °F - 22 °F 91%  in - Calm Calm - -  
2:00 AM 24.8 °F - 23.0 °F 93% 30.33 in - Calm Calm - N/A   Clear
2:30 AM 24.8 °F - 23.0 °F 93% 30.33 in - Calm Calm - N/A   Clear
3:00 AM 24 °F - 23 °F 92%  in - SW 3.5 mph - -  
3:00 AM 24.8 °F 20.5 °F 23.0 °F 93% 30.33 in - SW 3.5 mph - N/A   Clear
3:30 AM 26.6 °F - 24.8 °F 93% 30.33 in - Calm Calm - N/A   Clear
4:00 AM 23.0 °F - 23.0 °F 100% 30.33 in - Calm Calm - N/A   Clear
4:30 AM 23.0 °F - 23.0 °F 100% 30.33 in - Calm Calm - N/A   Clear
5:00 AM 23 °F - 20 °F 86%  in - Calm Calm - -  
5:00 AM 23.0 °F - 21.2 °F 93% 30.33 in - Calm Calm - N/A   Clear
5:30 AM 23.0 °F - 21.2 °F 93% 30.33 in - Calm Calm - N/A   Clear
6:00 AM 22 °F - 20 °F 91%  in - Calm Calm - -  
6:00 AM 23.0 °F - 21.2 °F 93% 30.33 in - Calm Calm - N/A   Clear
6:30 AM 23.0 °F - 21.2 °F 93% 30.33 in - Variable 1.2 mph - N/A   Clear
7:00 AM 22 °F - 20 °F 89%  in 9 mi SE 1.2 mph - -  
7:00 AM 23.0 °F - 21.2 °F 93% 30.33 in - Variable 1.2 mph - N/A   Clear
7:30 AM 23.0 °F - 21.2 °F 93% 30.36 in 3.7 mi Calm Calm - N/A   Unknown
8:00 AM 21 °F - 20 °F 93%  in - Calm Calm - -  
8:00 AM 23.0 °F - 21.2 °F 93% 30.36 in 3.1 mi Calm Calm - N/A   Mist
8:30 AM 21.2 °F - 21.2 °F 100% 30.36 in 3.7 mi Calm Calm - N/A   Unknown
9:00 AM 22 °F - 20 °F 90%  in - Calm Calm - -  
9:00 AM 21.2 °F - 21.2 °F 100% 30.36 in 4.3 mi Calm Calm - N/A   Unknown
9:30 AM 24.8 °F - 24.8 °F 100% 30.39 in 5.6 mi Calm Calm - N/A   Unknown
10:00 AM 30.2 °F - 26.6 °F 86% 30.39 in 5.6 mi Calm Calm - N/A   Unknown
10:30 AM 33.8 °F - 28.4 °F 81% 30.39 in 5.6 mi Calm Calm - N/A   Unknown
11:00 AM 37 °F - 30 °F 67%  in - Calm Calm - -  
11:00 AM 35.6 °F - 30.2 °F 81% 30.42 in 5.6 mi Calm Calm - N/A   Unknown
11:30 AM 39.2 °F - 32.0 °F 75% 30.42 in - Calm Calm - N/A   Clear
12:00 PM 44 °F - 33 °F 53%  in - East 4.6 mph - -  
12:00 PM 42.8 °F 40.1 °F 33.8 °F 70% 30.39 in - East 4.6 mph - N/A   Clear
12:30 PM 44.6 °F - 33.8 °F 66% 30.39 in - Variable 2.3 mph - N/A   Clear
1:00 PM 50 °F - 34 °F 43%  in 7 mi East 3.5 mph - -  
1:00 PM 50.0 °F - 35.6 °F 58% 30.39 in - East 3.5 mph - N/A   Clear
1:30 PM 51.8 °F - 33.8 °F 50% 30.36 in - East 8.1 mph - N/A   Clear
2:00 PM 54 °F - 34 °F 34%  in - East 6.9 mph - -  
2:00 PM 53.6 °F - 33.8 °F 47% 30.36 in - East 6.9 mph - N/A   Clear
2:30 PM 53.6 °F - 33.8 °F 47% 30.36 in - East 6.9 mph - N/A   Clear
3:00 PM 55 °F - 33 °F 32%  in - ENE 6.9 mph - -  
3:00 PM 53.6 °F - 33.8 °F 47% 30.36 in - East 6.9 mph - N/A   Clear
3:30 PM 55.4 °F - 33.8 °F 44% 30.33 in - ENE 9.2 mph - N/A   Clear
4:00 PM 55.4 °F - 33.8 °F 44% 30.33 in - NE 6.9 mph - N/A   Clear
4:30 PM 53.6 °F - 33.8 °F 47% 30.33 in - NE 8.1 mph - N/A   Clear
5:00 PM 53 °F - 33 °F 35%  in - NE 6.9 mph - -  
5:00 PM 53.6 °F - 33.8 °F 47% 30.36 in - NE 6.9 mph - N/A   Clear
5:30 PM 50.0 °F - 33.8 °F 54% 30.36 in - East 3.5 mph - N/A   Clear
6:00 PM 48 °F - 33 °F 44%  in - ENE 3.5 mph - -  
6:00 PM 48.2 °F - 33.8 °F 58% 30.36 in - Variable 2.3 mph - N/A   Clear
6:30 PM 44.6 °F 40.7 °F 33.8 °F 66% 30.36 in - East 6.9 mph - N/A   Clear
7:00 PM 42 °F - 33 °F 59%  in 11 mi Calm Calm - -  
7:00 PM 41.0 °F - 33.8 °F 76% 30.36 in - Calm Calm - N/A   Clear
7:30 PM 37.4 °F - 32.0 °F 81% 30.36 in - Calm Calm - N/A   Clear
8:00 PM 32 °F - 28 °F 77%  in - WSW 3.5 mph - -  
8:00 PM 33.8 °F - 30.2 °F 87% 30.36 in - Variable 2.3 mph - N/A   Clear
8:30 PM 33.8 °F - 30.2 °F 87% 30.36 in - Variable 1.2 mph - N/A   Clear
9:00 PM 31 °F - 26 °F 76%  in - Calm Calm - -  
9:00 PM 32.0 °F - 28.4 °F 87% 30.39 in - Calm Calm - N/A   Clear
9:30 PM 30.2 °F - 26.6 °F 86% 30.39 in - Calm Calm - N/A   Clear
10:00 PM 30.2 °F - 26.6 °F 86% 30.39 in - Calm Calm - N/A   Clear
10:30 PM 28.4 °F - 24.8 °F 86% 30.39 in - Calm Calm - N/A   Clear
11:00 PM 27 °F - 25 °F 87%  in - Calm Calm - -  
11:00 PM 28.4 °F - 26.6 °F 93% 30.39 in - Calm Calm - N/A   Clear
11:30 PM 26.6 °F - 26.6 °F 100% 30.39 in - Calm Calm - N/A   Clear